Time,TemperatureF,DewpointF,PressureIn,WindDirection,WindDirectionDegrees,WindSpeedMPH,WindSpeedGustMPH,Humidity,HourlyPrecipIn,Conditions,Clouds,dailyrainin,SoftwareType,DateUTC
2013-10-24 00:03:00,57.0,46.2,30.10,WSW,239,0.0,0.0,67,0.00,,,0.00,meteohub,2013-10-24 05:03:00,
2013-10-24 00:08:00,56.8,46.0,30.10,WSW,239,0.0,0.0,67,0.00,,,0.00,meteohub,2013-10-24 05:08:00,
2013-10-24 00:13:00,56.8,46.0,30.09,WSW,239,0.0,0.0,67,0.00,,,0.00,meteohub,2013-10-24 05:13:00,
2013-10-24 00:18:00,56.8,46.0,30.09,WSW,239,0.0,0.0,67,0.00,,,0.00,meteohub,2013-10-24 05:18:00,
2013-10-24 00:23:00,56.7,45.9,30.09,WSW,239,0.0,0.0,67,0.00,,,0.00,meteohub,2013-10-24 05:23:00,
2013-10-24 00:29:00,56.5,46.0,30.09,WSW,239,0.0,0.0,68,0.00,,,0.00,meteohub,2013-10-24 05:29:00,
2013-10-24 00:34:00,56.5,46.0,30.09,WSW,239,0.0,0.0,68,0.00,,,0.00,meteohub,2013-10-24 05:34:00,
2013-10-24 00:39:00,56.3,45.9,30.09,WSW,239,0.0,0.0,68,0.00,,,0.00,meteohub,2013-10-24 05:39:00,
2013-10-24 00:44:00,56.1,46.0,30.09,WSW,239,0.0,0.0,69,0.00,,,0.00,meteohub,2013-10-24 05:44:00,
2013-10-24 00:49:00,55.9,46.2,30.09,WSW,239,0.0,0.0,70,0.00,,,0.00,meteohub,2013-10-24 05:49:00,
2013-10-24 00:54:00,55.6,46.0,30.10,WSW,239,0.0,0.0,70,0.00,,,0.00,meteohub,2013-10-24 05:54:00,
2013-10-24 00:59:00,55.2,46.0,30.10,WSW,239,0.0,0.0,71,0.00,,,0.00,meteohub,2013-10-24 05:59:00,
2013-10-24 01:04:00,54.9,46.0,30.10,WSW,239,0.0,0.0,72,0.00,,,0.00,meteohub,2013-10-24 06:04:00,
2013-10-24 01:09:00,54.5,46.0,30.10,WSW,239,0.0,0.0,73,0.00,,,0.00,meteohub,2013-10-24 06:09:00,
2013-10-24 01:14:00,54.1,45.7,30.10,WSW,239,0.0,0.0,73,0.00,,,0.00,meteohub,2013-10-24 06:14:00,
2013-10-24 01:19:00,53.8,45.7,30.10,WSW,239,0.0,0.0,74,0.00,,,0.00,meteohub,2013-10-24 06:19:00,
2013-10-24 01:24:00,53.4,45.3,30.09,WSW,239,0.0,0.0,74,0.00,,,0.00,meteohub,2013-10-24 06:24:00,
2013-10-24 01:29:00,53.2,45.5,30.10,WSW,239,0.0,0.0,75,0.00,,,0.00,meteohub,2013-10-24 06:29:00,
2013-10-24 01:34:00,53.2,45.5,30.10,WSW,239,0.0,0.0,75,0.00,,,0.00,meteohub,2013-10-24 06:34:00,
2013-10-24 01:39:00,53.1,45.7,30.10,WSW,239,0.0,0.0,76,0.00,,,0.00,meteohub,2013-10-24 06:39:00,
2013-10-24 01:44:00,52.9,45.9,30.10,WSW,239,0.0,0.0,77,0.00,,,0.00,meteohub,2013-10-24 06:44:00,
2013-10-24 01:49:00,52.9,45.9,30.10,WSW,239,0.0,0.0,77,0.00,,,0.00,meteohub,2013-10-24 06:49:00,
2013-10-24 01:54:00,52.9,45.9,30.10,WSW,239,0.0,0.0,77,0.00,,,0.00,meteohub,2013-10-24 06:54:00,
2013-10-24 01:59:00,52.7,45.7,30.10,WSW,239,0.0,0.0,77,0.00,,,0.00,meteohub,2013-10-24 06:59:00,
2013-10-24 02:04:00,52.5,45.9,30.10,WSW,239,0.0,0.0,78,0.00,,,0.00,meteohub,2013-10-24 07:04:00,
2013-10-24 02:09:00,52.5,45.9,30.11,WSW,239,0.0,0.0,78,0.00,,,0.00,meteohub,2013-10-24 07:09:00,
2013-10-24 02:14:00,52.5,45.9,30.10,WSW,239,0.0,0.0,78,0.00,,,0.00,meteohub,2013-10-24 07:14:00,
2013-10-24 02:19:00,52.3,45.7,30.11,WSW,239,0.0,0.0,78,0.00,,,0.00,meteohub,2013-10-24 07:19:00,
2013-10-24 02:24:00,52.0,45.7,30.11,WSW,239,0.0,0.0,79,0.00,,,0.00,meteohub,2013-10-24 07:24:00,
2013-10-24 02:29:00,51.6,45.3,30.11,WSW,239,0.0,0.0,79,0.00,,,0.00,meteohub,2013-10-24 07:29:00,
2013-10-24 02:34:00,51.4,45.5,30.11,WSW,239,0.0,0.0,80,0.00,,,0.00,meteohub,2013-10-24 07:34:00,
2013-10-24 02:39:00,51.4,45.9,30.11,WSW,239,0.0,0.0,81,0.00,,,0.00,meteohub,2013-10-24 07:39:00,
2013-10-24 02:44:00,51.3,45.7,30.11,WSW,239,0.0,0.0,81,0.00,,,0.00,meteohub,2013-10-24 07:44:00,
2013-10-24 02:49:00,51.3,45.3,30.11,WSW,239,0.0,0.0,80,0.00,,,0.00,meteohub,2013-10-24 07:49:00,
2013-10-24 02:54:00,51.3,45.3,30.10,WSW,239,0.0,0.0,80,0.00,,,0.00,meteohub,2013-10-24 07:54:00,
2013-10-24 02:59:00,51.3,45.3,30.10,WSW,239,0.0,0.0,80,0.00,,,0.00,meteohub,2013-10-24 07:59:00,
2013-10-24 03:04:00,51.3,45.3,30.10,WSW,239,0.0,0.0,80,0.00,,,0.00,meteohub,2013-10-24 08:04:00,
2013-10-24 03:09:00,51.1,45.1,30.10,WSW,239,0.0,0.0,80,0.00,,,0.00,meteohub,2013-10-24 08:09:00,
2013-10-24 03:14:00,50.7,44.8,30.10,WSW,239,0.0,0.0,80,0.00,,,0.00,meteohub,2013-10-24 08:14:00,
2013-10-24 03:19:00,50.5,45.0,30.10,WSW,239,0.0,0.0,81,0.00,,,0.00,meteohub,2013-10-24 08:19:00,
2013-10-24 03:24:00,50.5,45.0,30.10,WSW,239,0.0,0.0,81,0.00,,,0.00,meteohub,2013-10-24 08:24:00,
2013-10-24 03:29:00,50.4,44.8,30.10,WSW,239,0.0,0.0,81,0.00,,,0.00,meteohub,2013-10-24 08:29:00,
2013-10-24 03:34:00,50.2,44.6,30.10,WSW,239,0.0,0.0,81,0.00,,,0.00,meteohub,2013-10-24 08:34:00,
2013-10-24 03:39:00,49.8,44.2,30.10,WSW,239,0.0,0.0,81,0.00,,,0.00,meteohub,2013-10-24 08:39:00,
2013-10-24 03:46:00,49.6,44.4,30.10,WSW,239,0.0,0.0,82,0.00,,,0.00,meteohub,2013-10-24 08:46:00,
2013-10-24 03:51:00,49.6,44.4,30.10,WSW,239,0.0,0.0,82,0.00,,,0.00,meteohub,2013-10-24 08:51:00,
2013-10-24 03:56:00,49.5,44.2,30.10,WSW,239,0.0,0.0,82,0.00,,,0.00,meteohub,2013-10-24 08:56:00,
2013-10-24 04:01:00,49.5,44.2,30.10,WSW,239,0.0,0.0,82,0.00,,,0.00,meteohub,2013-10-24 09:01:00,
2013-10-24 04:06:00,49.5,44.2,30.10,WSW,239,0.0,0.0,82,0.00,,,0.00,meteohub,2013-10-24 09:06:00,
2013-10-24 04:11:00,49.3,44.1,30.10,WSW,239,0.0,0.0,82,0.00,,,0.00,meteohub,2013-10-24 09:11:00,
2013-10-24 04:16:00,49.3,44.1,30.10,WSW,239,0.0,0.0,82,0.00,,,0.00,meteohub,2013-10-24 09:16:00,
2013-10-24 04:21:00,49.1,43.9,30.10,WSW,239,0.0,0.0,82,0.00,,,0.00,meteohub,2013-10-24 09:21:00,
2013-10-24 04:26:00,48.9,43.7,30.11,WSW,239,0.0,0.0,82,0.00,,,0.00,meteohub,2013-10-24 09:26:00,
2013-10-24 04:31:00,48.7,43.5,30.11,WSW,239,0.0,0.0,82,0.00,,,0.00,meteohub,2013-10-24 09:31:00,
2013-10-24 04:36:00,48.7,43.5,30.11,WSW,239,0.0,0.0,82,0.00,,,0.00,meteohub,2013-10-24 09:36:00,
2013-10-24 04:41:00,48.7,43.5,30.11,WSW,239,0.0,0.0,82,0.00,,,0.00,meteohub,2013-10-24 09:41:00,
2013-10-24 04:46:00,48.7,43.5,30.11,WSW,239,0.0,0.0,82,0.00,,,0.00,meteohub,2013-10-24 09:46:00,
2013-10-24 04:51:00,48.7,43.5,30.11,WSW,239,0.0,0.0,82,0.00,,,0.00,meteohub,2013-10-24 09:51:00,
2013-10-24 04:56:00,48.6,43.3,30.11,WSW,239,0.0,0.0,82,0.00,,,0.00,meteohub,2013-10-24 09:56:00,
2013-10-24 05:01:00,48.4,43.2,30.11,WSW,239,0.0,0.0,82,0.00,,,0.00,meteohub,2013-10-24 10:01:00,
2013-10-24 05:06:00,48.0,42.8,30.11,WSW,239,0.0,0.0,82,0.00,,,0.00,meteohub,2013-10-24 10:06:00,
2013-10-24 05:11:00,47.7,42.8,30.11,WSW,239,0.0,0.0,83,0.00,,,0.00,meteohub,2013-10-24 10:11:00,
2013-10-24 05:16:00,47.5,42.8,30.11,WSW,239,0.0,0.0,84,0.00,,,0.00,meteohub,2013-10-24 10:16:00,
2013-10-24 05:21:00,47.5,43.2,30.11,WSW,239,0.0,0.0,85,0.00,,,0.00,meteohub,2013-10-24 10:21:00,
2013-10-24 05:26:00,47.5,43.2,30.11,WSW,239,0.0,0.0,85,0.00,,,0.00,meteohub,2013-10-24 10:26:00,
2013-10-24 05:31:00,47.5,43.2,30.11,WSW,239,0.0,0.0,85,0.00,,,0.00,meteohub,2013-10-24 10:31:00,
2013-10-24 05:36:00,47.5,43.2,30.12,WSW,239,0.0,0.0,85,0.00,,,0.00,meteohub,2013-10-24 10:36:00,
2013-10-24 05:41:00,47.3,42.8,30.12,WSW,239,0.0,0.0,84,0.00,,,0.00,meteohub,2013-10-24 10:41:00,
2013-10-24 05:46:00,47.1,42.8,30.12,WSW,239,0.0,0.0,85,0.00,,,0.00,meteohub,2013-10-24 10:46:00,
2013-10-24 05:51:00,46.9,42.6,30.12,WSW,239,0.0,0.0,85,0.00,,,0.00,meteohub,2013-10-24 10:51:00,
2013-10-24 05:56:00,46.9,42.6,30.12,WSW,239,0.0,0.0,85,0.00,,,0.00,meteohub,2013-10-24 10:56:00,
2013-10-24 06:01:00,46.9,43.0,30.12,WSW,239,0.0,0.0,86,0.00,,,0.00,meteohub,2013-10-24 11:01:00,
2013-10-24 06:06:00,46.9,43.0,30.12,WSW,239,0.0,0.0,86,0.00,,,0.00,meteohub,2013-10-24 11:06:00,
2013-10-24 06:12:00,47.1,43.2,30.12,WSW,239,0.0,0.0,86,0.00,,,0.00,meteohub,2013-10-24 11:12:00,
2013-10-24 06:17:00,47.1,42.8,30.13,WSW,239,0.0,0.0,85,0.00,,,0.00,meteohub,2013-10-24 11:17:00,
2013-10-24 06:22:00,47.1,42.8,30.13,WSW,239,0.0,0.0,85,0.00,,,0.00,meteohub,2013-10-24 11:22:00,
2013-10-24 06:27:00,47.1,43.2,30.13,WSW,239,0.0,0.0,86,0.00,,,0.00,meteohub,2013-10-24 11:27:00,
2013-10-24 06:32:00,47.1,42.8,30.13,WSW,239,0.0,0.0,85,0.00,,,0.00,meteohub,2013-10-24 11:32:00,
2013-10-24 06:37:00,47.1,42.8,30.13,WSW,239,0.0,0.0,85,0.00,,,0.00,meteohub,2013-10-24 11:37:00,
2013-10-24 06:42:00,47.3,43.0,30.13,WSW,239,0.0,0.0,85,0.00,,,0.00,meteohub,2013-10-24 11:42:00,
2013-10-24 06:47:00,47.3,43.0,30.13,WSW,239,0.0,0.0,85,0.00,,,0.00,meteohub,2013-10-24 11:47:00,
2013-10-24 06:52:00,47.1,42.6,30.13,WSW,239,0.0,0.0,84,0.00,,,0.00,meteohub,2013-10-24 11:52:00,
2013-10-24 06:57:00,46.9,42.4,30.13,WSW,239,0.0,0.0,84,0.00,,,0.00,meteohub,2013-10-24 11:57:00,
2013-10-24 07:02:00,46.8,42.4,30.14,WSW,239,0.0,0.0,85,0.00,,,0.00,meteohub,2013-10-24 12:02:00,
2013-10-24 07:07:00,46.8,42.4,30.14,WSW,239,0.0,0.0,85,0.00,,,0.00,meteohub,2013-10-24 12:07:00,
2013-10-24 07:12:00,46.6,42.3,30.14,WSW,239,0.0,0.0,85,0.00,,,0.00,meteohub,2013-10-24 12:12:00,
2013-10-24 07:17:00,46.4,42.1,30.14,WSW,239,0.0,0.0,85,0.00,,,0.00,meteohub,2013-10-24 12:17:00,
2013-10-24 07:22:00,46.2,41.9,30.15,WSW,239,0.0,0.0,85,0.00,,,0.00,meteohub,2013-10-24 12:22:00,
2013-10-24 07:27:00,46.2,41.9,30.15,WSW,239,0.0,0.0,85,0.00,,,0.00,meteohub,2013-10-24 12:27:00,
2013-10-24 07:32:00,46.0,42.1,30.15,WSW,239,0.0,0.0,86,0.00,,,0.00,meteohub,2013-10-24 12:32:00,
2013-10-24 07:37:00,45.9,41.9,30.15,WSW,239,0.0,0.0,86,0.00,,,0.00,meteohub,2013-10-24 12:37:00,
2013-10-24 07:42:00,45.7,41.7,30.15,WSW,239,0.0,0.0,86,0.00,,,0.00,meteohub,2013-10-24 12:42:00,
2013-10-24 07:47:00,45.7,42.1,30.15,WSW,239,0.0,0.0,87,0.00,,,0.00,meteohub,2013-10-24 12:47:00,
2013-10-24 07:52:00,45.5,41.9,30.15,WSW,239,0.0,0.0,87,0.00,,,0.00,meteohub,2013-10-24 12:52:00,
2013-10-24 07:57:00,45.5,41.9,30.15,WSW,239,0.0,0.0,87,0.00,,,0.00,meteohub,2013-10-24 12:57:00,
2013-10-24 08:02:00,45.3,41.7,30.15,WSW,239,0.0,0.0,87,0.00,,,0.00,meteohub,2013-10-24 13:02:00,
2013-10-24 08:07:00,45.3,41.9,30.15,WSW,239,0.0,0.0,88,0.00,,,0.00,meteohub,2013-10-24 13:07:00,
2013-10-24 08:12:00,45.3,41.9,30.15,WSW,239,0.0,0.0,88,0.00,,,0.00,meteohub,2013-10-24 13:12:00,
2013-10-24 08:17:00,45.1,41.7,30.16,WSW,239,0.0,0.0,88,0.00,,,0.00,meteohub,2013-10-24 13:17:00,
2013-10-24 08:22:00,45.3,42.3,30.16,WSW,239,0.0,0.0,89,0.00,,,0.00,meteohub,2013-10-24 13:22:00,
2013-10-24 08:27:00,45.5,42.4,30.16,WSW,239,0.0,0.0,89,0.00,,,0.00,meteohub,2013-10-24 13:27:00,
2013-10-24 08:32:00,45.7,42.6,30.16,WSW,239,0.0,0.0,89,0.00,,,0.00,meteohub,2013-10-24 13:32:00,
2013-10-24 08:37:00,46.0,43.0,30.17,WSW,239,0.0,0.0,89,0.00,,,0.00,meteohub,2013-10-24 13:37:00,
2013-10-24 08:42:00,46.2,42.8,30.17,WSW,239,0.0,0.0,88,0.00,,,0.00,meteohub,2013-10-24 13:42:00,
2013-10-24 08:47:00,46.8,43.3,30.17,WSW,239,0.0,0.0,88,0.00,,,0.00,meteohub,2013-10-24 13:47:00,
2013-10-24 08:52:00,47.3,43.9,30.18,WSW,239,0.0,0.0,88,0.00,,,0.00,meteohub,2013-10-24 13:52:00,
2013-10-24 08:57:00,47.8,44.2,30.18,WSW,239,0.0,0.0,87,0.00,,,0.00,meteohub,2013-10-24 13:57:00,
2013-10-24 09:02:00,48.4,44.1,30.18,WSW,239,0.0,0.0,85,0.00,,,0.00,meteohub,2013-10-24 14:02:00,
2013-10-24 09:07:00,48.7,44.4,30.19,WSW,239,0.0,0.0,85,0.00,,,0.00,meteohub,2013-10-24 14:07:00,
2013-10-24 09:12:00,49.3,45.0,30.19,WSW,239,0.0,0.0,85,0.00,,,0.00,meteohub,2013-10-24 14:12:00,
2013-10-24 09:17:00,49.8,45.5,30.19,WSW,239,0.0,0.0,85,0.00,,,0.00,meteohub,2013-10-24 14:17:00,
2013-10-24 09:22:00,50.9,46.2,30.19,WSW,239,0.0,0.0,84,0.00,,,0.00,meteohub,2013-10-24 14:22:00,
2013-10-24 09:27:00,51.8,46.4,30.19,WSW,239,0.0,0.0,82,0.00,,,0.00,meteohub,2013-10-24 14:27:00,
2013-10-24 09:32:00,52.5,46.9,30.19,WSW,239,0.0,0.0,81,0.00,,,0.00,meteohub,2013-10-24 14:32:00,
2013-10-24 09:37:00,53.8,47.8,30.19,WSW,239,0.0,0.0,80,0.00,,,0.00,meteohub,2013-10-24 14:37:00,
2013-10-24 09:42:00,54.9,47.5,30.19,WSW,239,0.0,0.0,76,0.00,,,0.00,meteohub,2013-10-24 14:42:00,
2013-10-24 09:47:00,55.9,48.2,30.20,WSW,239,0.0,0.0,75,0.00,,,0.00,meteohub,2013-10-24 14:47:00,
2013-10-24 09:52:00,57.2,48.6,30.20,WSW,239,0.0,0.0,73,0.00,,,0.00,meteohub,2013-10-24 14:52:00,
2013-10-24 09:57:00,57.9,47.8,30.20,WSW,239,0.0,0.0,69,0.00,,,0.00,meteohub,2013-10-24 14:57:00,
2013-10-24 10:02:00,58.8,48.2,30.20,WSW,239,0.0,0.0,68,0.00,,,0.00,meteohub,2013-10-24 15:02:00,
2013-10-24 10:07:00,59.4,48.4,30.21,WSW,239,0.0,0.0,67,0.00,,,0.00,meteohub,2013-10-24 15:07:00,
2013-10-24 10:12:00,60.1,48.7,30.21,WSW,239,0.0,0.0,66,0.00,,,0.00,meteohub,2013-10-24 15:12:00,
2013-10-24 10:17:00,60.6,49.3,30.21,WSW,239,0.0,0.0,66,0.00,,,0.00,meteohub,2013-10-24 15:17:00,
2013-10-24 10:22:00,61.3,48.6,30.21,WSW,239,0.0,0.0,63,0.00,,,0.00,meteohub,2013-10-24 15:22:00,
2013-10-24 10:27:00,61.5,48.4,30.21,WSW,239,0.0,0.0,62,0.00,,,0.00,meteohub,2013-10-24 15:27:00,
2013-10-24 10:32:00,61.9,48.7,30.21,WSW,240,0.0,0.0,62,0.00,,,0.00,meteohub,2013-10-24 15:32:00,
2013-10-24 10:38:00,62.1,48.0,30.21,NW,311,0.0,0.0,60,0.00,,,0.00,meteohub,2013-10-24 15:38:00,
2013-10-24 10:43:00,62.2,48.2,30.21,NW,315,0.0,0.0,60,0.00,,,0.00,meteohub,2013-10-24 15:43:00,
2013-10-24 10:48:00,63.0,48.4,30.20,NW,323,0.0,0.0,59,0.00,,,0.00,meteohub,2013-10-24 15:48:00,
2013-10-24 10:53:00,63.9,48.7,30.20,NW,323,0.0,0.0,58,0.00,,,0.00,meteohub,2013-10-24 15:53:00,
2013-10-24 10:58:00,64.6,48.6,30.20,NW,323,0.0,0.0,56,0.00,,,0.00,meteohub,2013-10-24 15:58:00,
2013-10-24 11:03:00,65.1,48.0,30.20,NW,320,0.0,0.0,54,0.00,,,0.00,meteohub,2013-10-24 16:03:00,
2013-10-24 11:08:00,65.7,49.1,30.20,NW,320,0.0,0.0,55,0.00,,,0.00,meteohub,2013-10-24 16:08:00,
2013-10-24 11:13:00,66.6,49.5,30.20,NW,321,0.0,0.0,54,0.00,,,0.00,meteohub,2013-10-24 16:13:00,
2013-10-24 11:18:00,67.3,49.1,30.21,NW,321,0.0,0.0,52,0.00,,,0.00,meteohub,2013-10-24 16:18:00,
2013-10-24 11:23:00,67.6,49.5,30.20,NW,321,0.0,0.0,52,0.00,,,0.00,meteohub,2013-10-24 16:23:00,
2013-10-24 11:28:00,68.4,48.4,30.20,NW,321,0.0,0.0,49,0.00,,,0.00,meteohub,2013-10-24 16:28:00,
2013-10-24 11:33:00,68.9,48.4,30.20,NW,319,0.0,0.0,48,0.00,,,0.00,meteohub,2013-10-24 16:33:00,
2013-10-24 11:38:00,69.1,48.6,30.20,NW,313,0.0,0.0,48,0.00,,,0.00,meteohub,2013-10-24 16:38:00,
2013-10-24 11:43:00,69.4,48.4,30.20,WSW,256,4.0,0.0,47,0.00,,,0.00,meteohub,2013-10-24 16:43:00,
2013-10-24 11:48:00,69.8,47.5,30.21,SW,215,5.0,0.0,45,0.00,,,0.00,meteohub,2013-10-24 16:48:00,
2013-10-24 11:53:00,70.2,47.8,30.21,SSW,213,0.0,0.0,45,0.00,,,0.00,meteohub,2013-10-24 16:53:00,
2013-10-24 11:58:00,70.9,47.8,30.20,SSW,213,0.0,6.0,44,0.00,,,0.00,meteohub,2013-10-24 16:58:00,
2013-10-24 12:03:00,71.2,46.9,30.20,WSW,247,10.0,10.0,42,0.00,,,0.00,meteohub,2013-10-24 17:03:00,
2013-10-24 12:08:00,71.2,47.7,30.20,WSW,244,0.0,6.0,43,0.00,,,0.00,meteohub,2013-10-24 17:08:00,
2013-10-24 12:13:00,71.8,47.5,30.20,SW,235,4.0,6.0,42,0.00,,,0.00,meteohub,2013-10-24 17:13:00,
2013-10-24 12:18:00,72.1,48.4,30.19,SSW,213,1.0,10.0,43,0.00,,,0.00,meteohub,2013-10-24 17:18:00,
2013-10-24 12:23:00,72.7,47.7,30.19,WSW,238,6.0,10.0,41,0.00,,,0.00,meteohub,2013-10-24 17:23:00,
2013-10-24 12:28:00,72.5,48.0,30.19,South,181,4.0,10.0,42,0.00,,,0.00,meteohub,2013-10-24 17:28:00,
2013-10-24 12:33:00,72.9,48.4,30.19,SW,235,6.0,10.0,42,0.00,,,0.00,meteohub,2013-10-24 17:33:00,
2013-10-24 12:38:00,73.2,48.7,30.19,WSW,246,0.0,10.0,42,0.00,,,0.00,meteohub,2013-10-24 17:38:00,
2013-10-24 12:43:00,73.6,49.1,30.19,SSW,198,0.0,10.0,42,0.00,,,0.00,meteohub,2013-10-24 17:43:00,
2013-10-24 12:48:00,74.1,48.9,30.19,WSW,238,2.0,10.0,41,0.00,,,0.00,meteohub,2013-10-24 17:48:00,
2013-10-24 12:53:00,74.3,49.1,30.19,South,191,3.0,10.0,41,0.00,,,0.00,meteohub,2013-10-24 17:53:00,
2013-10-24 12:58:00,74.7,50.0,30.18,SW,225,2.0,6.0,42,0.00,,,0.00,meteohub,2013-10-24 17:58:00,
2013-10-24 13:03:00,74.8,50.2,30.18,SSW,207,0.0,6.0,42,0.00,,,0.00,meteohub,2013-10-24 18:03:00,
2013-10-24 13:08:00,75.0,50.4,30.18,SW,232,0.0,6.0,42,0.00,,,0.00,meteohub,2013-10-24 18:08:00,
2013-10-24 13:13:00,75.0,50.4,30.18,SSW,202,0.0,6.0,42,0.00,,,0.00,meteohub,2013-10-24 18:13:00,
2013-10-24 13:18:00,75.6,50.2,30.17,ESE,117,0.0,7.0,41,0.00,,,0.00,meteohub,2013-10-24 18:18:00,
2013-10-24 13:23:00,75.6,50.9,30.17,NE,51,0.0,7.0,42,0.00,,,0.00,meteohub,2013-10-24 18:23:00,
2013-10-24 13:28:00,75.7,49.6,30.17,West,268,0.0,7.0,40,0.00,,,0.00,meteohub,2013-10-24 18:28:00,
2013-10-24 13:33:00,75.7,50.4,30.17,SSW,202,0.0,7.0,41,0.00,,,0.00,meteohub,2013-10-24 18:33:00,
2013-10-24 13:38:00,75.9,48.6,30.16,South,176,4.0,7.0,38,0.00,,,0.00,meteohub,2013-10-24 18:38:00,
2013-10-24 13:43:00,76.5,48.9,30.15,SW,222,0.0,7.0,38,0.00,,,0.00,meteohub,2013-10-24 18:43:00,
2013-10-24 13:48:00,76.8,49.3,30.15,SSW,203,0.0,7.0,38,0.00,,,0.00,meteohub,2013-10-24 18:48:00,
2013-10-24 13:53:00,77.4,48.4,30.15,SSE,149,5.0,7.0,36,0.00,,,0.00,meteohub,2013-10-24 18:53:00,
2013-10-24 13:58:00,77.4,46.8,30.14,SSW,205,0.0,9.0,34,0.00,,,0.00,meteohub,2013-10-24 18:58:00,
2013-10-24 14:03:00,77.5,47.7,30.14,SE,146,1.0,9.0,35,0.00,,,0.00,meteohub,2013-10-24 19:03:00,
2013-10-24 14:09:00,77.7,47.1,30.14,SE,144,0.0,9.0,34,0.00,,,0.00,meteohub,2013-10-24 19:09:00,
2013-10-24 14:14:00,77.7,47.1,30.14,SSE,161,2.0,9.0,34,0.00,,,0.00,meteohub,2013-10-24 19:14:00,
2013-10-24 14:19:00,77.9,48.0,30.14,SSW,206,1.0,9.0,35,0.00,,,0.00,meteohub,2013-10-24 19:19:00,
2013-10-24 14:24:00,78.1,47.5,30.14,SW,222,0.0,9.0,34,0.00,,,0.00,meteohub,2013-10-24 19:24:00,
2013-10-24 14:29:00,78.3,48.4,30.13,South,169,0.0,9.0,35,0.00,,,0.00,meteohub,2013-10-24 19:29:00,
2013-10-24 14:34:00,78.3,49.1,30.13,WSW,249,3.0,7.0,36,0.00,,,0.00,meteohub,2013-10-24 19:34:00,
2013-10-24 14:39:00,78.3,49.1,30.13,SSW,200,0.0,7.0,36,0.00,,,0.00,meteohub,2013-10-24 19:39:00,
2013-10-24 14:44:00,78.4,47.7,30.13,SSW,205,0.0,7.0,34,0.00,,,0.00,meteohub,2013-10-24 19:44:00,
2013-10-24 14:49:00,78.4,47.7,30.13,SSW,206,1.0,7.0,34,0.00,,,0.00,meteohub,2013-10-24 19:49:00,
2013-10-24 14:54:00,78.6,47.1,30.12,SW,217,0.0,10.0,33,0.00,,,0.00,meteohub,2013-10-24 19:54:00,
2013-10-24 14:59:00,79.0,47.5,30.12,ESE,121,1.0,10.0,33,0.00,,,0.00,meteohub,2013-10-24 19:59:00,
2013-10-24 15:04:00,78.8,46.4,30.12,SE,137,0.0,10.0,32,0.00,,,0.00,meteohub,2013-10-24 20:04:00,
2013-10-24 15:09:00,79.0,46.6,30.12,SE,137,2.0,10.0,32,0.00,,,0.00,meteohub,2013-10-24 20:09:00,
2013-10-24 15:14:00,79.2,48.4,30.12,SE,130,2.0,9.0,34,0.00,,,0.00,meteohub,2013-10-24 20:14:00,
2013-10-24 15:19:00,79.7,47.3,30.12,SE,146,0.0,9.0,32,0.00,,,0.00,meteohub,2013-10-24 20:19:00,
2013-10-24 15:24:00,79.9,47.3,30.12,SSE,163,0.0,9.0,32,0.00,,,0.00,meteohub,2013-10-24 20:24:00,
2013-10-24 15:29:00,80.1,45.9,30.12,SSW,200,2.0,7.0,30,0.00,,,0.00,meteohub,2013-10-24 20:29:00,
2013-10-24 15:34:00,80.1,45.9,30.12,SE,144,2.0,7.0,30,0.00,,,0.00,meteohub,2013-10-24 20:34:00,
2013-10-24 15:39:00,80.1,45.0,30.12,SE,141,0.0,7.0,29,0.00,,,0.00,meteohub,2013-10-24 20:39:00,
2013-10-24 15:44:00,79.9,46.6,30.11,SE,141,0.0,10.0,31,0.00,,,0.00,meteohub,2013-10-24 20:44:00,
2013-10-24 15:49:00,80.1,47.5,30.11,ESE,119,4.0,10.0,32,0.00,,,0.00,meteohub,2013-10-24 20:49:00,
2013-10-24 15:54:00,80.1,46.8,30.12,ESE,123,0.0,6.0,31,0.00,,,0.00,meteohub,2013-10-24 20:54:00,
2013-10-24 15:59:00,79.9,46.6,30.12,ESE,117,2.0,6.0,31,0.00,,,0.00,meteohub,2013-10-24 20:59:00,
2013-10-24 16:04:00,79.9,46.6,30.12,SE,136,0.0,6.0,31,0.00,,,0.00,meteohub,2013-10-24 21:04:00,
2013-10-24 16:09:00,79.9,45.7,30.12,SSE,163,4.0,6.0,30,0.00,,,0.00,meteohub,2013-10-24 21:09:00,
2013-10-24 16:14:00,79.5,47.1,30.12,SE,140,2.0,9.0,32,0.00,,,0.00,meteohub,2013-10-24 21:14:00,
2013-10-24 16:19:00,79.9,45.7,30.12,SW,231,3.0,9.0,30,0.00,,,0.00,meteohub,2013-10-24 21:19:00,
2013-10-24 16:25:00,79.9,45.7,30.11,SSW,202,3.0,9.0,30,0.00,,,0.00,meteohub,2013-10-24 21:25:00,
2013-10-24 16:30:00,79.7,44.6,30.12,SSE,159,5.0,9.0,29,0.00,,,0.00,meteohub,2013-10-24 21:30:00,
2013-10-24 16:35:00,79.5,45.3,30.12,SSE,155,2.0,11.0,30,0.00,,,0.00,meteohub,2013-10-24 21:35:00,
2013-10-24 16:40:00,79.5,45.3,30.12,SE,137,5.0,11.0,30,0.00,,,0.00,meteohub,2013-10-24 21:40:00,
2013-10-24 16:45:00,79.3,45.1,30.11,South,175,4.0,11.0,30,0.00,,,0.00,meteohub,2013-10-24 21:45:00,
2013-10-24 16:50:00,79.3,45.1,30.12,SE,133,2.0,11.0,30,0.00,,,0.00,meteohub,2013-10-24 21:50:00,
2013-10-24 16:55:00,79.3,45.1,30.12,SE,142,8.0,11.0,30,0.00,,,0.00,meteohub,2013-10-24 21:55:00,
2013-10-24 17:00:00,79.2,45.9,30.11,SE,128,1.0,9.0,31,0.00,,,0.00,meteohub,2013-10-24 22:00:00,
2013-10-24 17:05:00,78.8,44.8,30.12,ESE,121,4.0,9.0,30,0.00,,,0.00,meteohub,2013-10-24 22:05:00,
2013-10-24 17:10:00,78.4,45.3,30.12,SSE,148,7.0,9.0,31,0.00,,,0.00,meteohub,2013-10-24 22:10:00,
2013-10-24 17:15:00,78.4,45.3,30.12,SE,134,8.0,9.0,31,0.00,,,0.00,meteohub,2013-10-24 22:15:00,
2013-10-24 17:20:00,78.3,45.1,30.11,SSE,153,1.0,9.0,31,0.00,,,0.00,meteohub,2013-10-24 22:20:00,
2013-10-24 17:25:00,78.3,45.1,30.12,ESE,121,5.0,9.0,31,0.00,,,0.00,meteohub,2013-10-24 22:25:00,
2013-10-24 17:30:00,78.3,45.1,30.12,SSE,150,9.0,10.0,31,0.00,,,0.00,meteohub,2013-10-24 22:30:00,
2013-10-24 17:35:00,77.9,44.1,30.11,SE,144,10.0,10.0,30,0.00,,,0.00,meteohub,2013-10-24 22:35:00,
2013-10-24 17:40:00,77.5,44.6,30.11,SE,140,0.0,12.0,31,0.00,,,0.00,meteohub,2013-10-24 22:40:00,
2013-10-24 17:45:00,77.5,44.6,30.11,ESE,119,4.0,12.0,31,0.00,,,0.00,meteohub,2013-10-24 22:45:00,
2013-10-24 17:50:00,77.4,44.4,30.11,SSE,153,7.0,12.0,31,0.00,,,0.00,meteohub,2013-10-24 22:50:00,
2013-10-24 17:55:00,77.4,44.4,30.11,SSE,153,2.0,12.0,31,0.00,,,0.00,meteohub,2013-10-24 22:55:00,
2013-10-24 18:00:00,77.2,45.0,30.11,ESE,118,0.0,11.0,32,0.00,,,0.00,meteohub,2013-10-24 23:00:00,
2013-10-24 18:06:00,76.8,44.8,30.12,SE,144,0.0,11.0,32,0.00,,,0.00,meteohub,2013-10-24 23:06:00,
2013-10-24 18:11:00,76.8,44.8,30.12,SSE,149,4.0,11.0,32,0.00,,,0.00,meteohub,2013-10-24 23:11:00,
2013-10-24 18:16:00,76.6,45.3,30.12,SSE,154,2.0,13.0,33,0.00,,,0.00,meteohub,2013-10-24 23:16:00,
2013-10-24 18:21:00,76.6,45.3,30.12,SSE,151,0.0,13.0,33,0.00,,,0.00,meteohub,2013-10-24 23:21:00,
2013-10-24 18:26:00,76.5,44.4,30.12,SE,139,0.0,13.0,32,0.00,,,0.00,meteohub,2013-10-24 23:26:00,
2013-10-24 18:31:00,76.3,45.1,30.12,ESE,119,0.0,10.0,33,0.00,,,0.00,meteohub,2013-10-24 23:31:00,
2013-10-24 18:36:00,76.3,44.2,30.12,ESE,115,4.0,10.0,32,0.00,,,0.00,meteohub,2013-10-24 23:36:00,
2013-10-24 18:41:00,75.7,44.6,30.12,ESE,116,0.0,10.0,33,0.00,,,0.00,meteohub,2013-10-24 23:41:00,
2013-10-24 18:46:00,75.6,44.4,30.12,ESE,117,0.0,10.0,33,0.00,,,0.00,meteohub,2013-10-24 23:46:00,
2013-10-24 18:51:00,75.0,44.8,30.12,ESE,117,0.0,7.0,34,0.00,,,0.00,meteohub,2013-10-24 23:51:00,
2013-10-24 18:56:00,74.5,44.2,30.12,ESE,118,2.0,7.0,34,0.00,,,0.00,meteohub,2013-10-24 23:56:00,
2013-10-24 19:01:00,73.9,44.6,30.12,ESE,118,1.0,8.0,35,0.00,,,0.00,meteohub,2013-10-25 00:01:00,
2013-10-24 19:06:00,73.2,44.6,30.13,ESE,118,0.0,8.0,36,0.00,,,0.00,meteohub,2013-10-25 00:06:00,
2013-10-24 19:11:00,72.9,45.1,30.13,ESE,118,0.0,8.0,37,0.00,,,0.00,meteohub,2013-10-25 00:11:00,
2013-10-24 19:16:00,72.1,45.1,30.12,ESE,118,0.0,8.0,38,0.00,,,0.00,meteohub,2013-10-25 00:16:00,
2013-10-24 19:21:00,71.6,45.3,30.13,ESE,118,0.0,4.0,39,0.00,,,0.00,meteohub,2013-10-25 00:21:00,
2013-10-24 19:26:00,71.1,45.5,30.13,ESE,118,0.0,4.0,40,0.00,,,0.00,meteohub,2013-10-25 00:26:00,
2013-10-24 19:31:00,70.5,45.7,30.14,ESE,118,0.0,0.0,41,0.00,,,0.00,meteohub,2013-10-25 00:31:00,
2013-10-24 19:36:00,70.0,45.1,30.13,ESE,118,0.0,0.0,41,0.00,,,0.00,meteohub,2013-10-25 00:36:00,
2013-10-24 19:41:00,69.4,45.3,30.13,ESE,118,0.0,0.0,42,0.00,,,0.00,meteohub,2013-10-25 00:41:00,
2013-10-24 19:46:00,68.7,45.3,30.13,ESE,118,0.0,0.0,43,0.00,,,0.00,meteohub,2013-10-25 00:46:00,
2013-10-24 19:51:00,68.4,45.7,30.14,ESE,118,0.0,0.0,44,0.00,,,0.00,meteohub,2013-10-25 00:51:00,
2013-10-24 19:56:00,67.8,45.7,30.14,ESE,118,0.0,0.0,45,0.00,,,0.00,meteohub,2013-10-25 00:56:00,
2013-10-24 20:01:00,67.5,45.3,30.14,ESE,118,0.0,0.0,45,0.00,,,0.00,meteohub,2013-10-25 01:01:00,
2013-10-24 20:06:00,67.1,45.7,30.14,ESE,118,0.0,0.0,46,0.00,,,0.00,meteohub,2013-10-25 01:06:00,
2013-10-24 20:11:00,66.9,45.5,30.14,ESE,118,0.0,0.0,46,0.00,,,0.00,meteohub,2013-10-25 01:11:00,
2013-10-24 20:16:00,66.7,45.9,30.14,ESE,118,0.0,0.0,47,0.00,,,0.00,meteohub,2013-10-25 01:16:00,
2013-10-24 20:21:00,66.6,45.7,30.14,ESE,118,0.0,0.0,47,0.00,,,0.00,meteohub,2013-10-25 01:21:00,
2013-10-24 20:26:00,66.2,45.9,30.15,ESE,118,0.0,0.0,48,0.00,,,0.00,meteohub,2013-10-25 01:26:00,
2013-10-24 20:31:00,65.8,46.2,30.15,ESE,118,0.0,0.0,49,0.00,,,0.00,meteohub,2013-10-25 01:31:00,
2013-10-24 20:36:00,65.7,46.0,30.15,ESE,118,0.0,0.0,49,0.00,,,0.00,meteohub,2013-10-25 01:36:00,
2013-10-24 20:41:00,65.3,46.2,30.15,ESE,118,0.0,0.0,50,0.00,,,0.00,meteohub,2013-10-25 01:41:00,
2013-10-24 20:46:00,64.9,46.4,30.16,ESE,118,0.0,0.0,51,0.00,,,0.00,meteohub,2013-10-25 01:46:00,
2013-10-24 20:52:00,64.8,46.2,30.16,ESE,118,0.0,0.0,51,0.00,,,0.00,meteohub,2013-10-25 01:52:00,
2013-10-24 20:57:00,64.4,45.9,30.16,ESE,118,0.0,0.0,51,0.00,,,0.00,meteohub,2013-10-25 01:57:00,
2013-10-24 21:02:00,64.2,46.2,30.16,ESE,118,0.0,0.0,52,0.00,,,0.00,meteohub,2013-10-25 02:02:00,
2013-10-24 21:07:00,63.9,46.4,30.17,ESE,118,0.0,0.0,53,0.00,,,0.00,meteohub,2013-10-25 02:07:00,
2013-10-24 21:12:00,63.7,46.2,30.17,ESE,118,0.0,0.0,53,0.00,,,0.00,meteohub,2013-10-25 02:12:00,
2013-10-24 21:17:00,63.3,46.4,30.17,ESE,118,0.0,0.0,54,0.00,,,0.00,meteohub,2013-10-25 02:17:00,
2013-10-24 21:22:00,63.1,46.8,30.17,ESE,118,0.0,0.0,55,0.00,,,0.00,meteohub,2013-10-25 02:22:00,
2013-10-24 21:27:00,62.8,46.4,30.17,ESE,118,0.0,0.0,55,0.00,,,0.00,meteohub,2013-10-25 02:27:00,
2013-10-24 21:32:00,62.6,46.8,30.17,ESE,118,0.0,0.0,56,0.00,,,0.00,meteohub,2013-10-25 02:32:00,
2013-10-24 21:37:00,62.4,46.6,30.17,ESE,118,0.0,0.0,56,0.00,,,0.00,meteohub,2013-10-25 02:37:00,
2013-10-24 21:42:00,62.1,46.2,30.17,ESE,118,0.0,0.0,56,0.00,,,0.00,meteohub,2013-10-25 02:42:00,
2013-10-24 21:47:00,61.9,46.4,30.18,ESE,118,0.0,0.0,57,0.00,,,0.00,meteohub,2013-10-25 02:47:00,
2013-10-24 21:52:00,61.7,46.4,30.18,ESE,118,0.0,0.0,57,0.00,,,0.00,meteohub,2013-10-25 02:52:00,
2013-10-24 21:57:00,61.3,46.4,30.18,ESE,118,0.0,0.0,58,0.00,,,0.00,meteohub,2013-10-25 02:57:00,
2013-10-24 22:02:00,61.2,46.8,30.18,ESE,118,0.0,0.0,59,0.00,,,0.00,meteohub,2013-10-25 03:02:00,
2013-10-24 22:07:00,61.0,46.6,30.18,ESE,118,0.0,0.0,59,0.00,,,0.00,meteohub,2013-10-25 03:07:00,
2013-10-24 22:12:00,60.8,47.3,30.18,ESE,118,0.0,0.0,61,0.00,,,0.00,meteohub,2013-10-25 03:12:00,
2013-10-24 22:17:00,60.6,46.6,30.18,ESE,118,0.0,0.0,60,0.00,,,0.00,meteohub,2013-10-25 03:17:00,
2013-10-24 22:22:00,60.4,46.9,30.18,ESE,118,0.0,0.0,61,0.00,,,0.00,meteohub,2013-10-25 03:22:00,
2013-10-24 22:27:00,60.3,46.8,30.18,ESE,118,0.0,0.0,61,0.00,,,0.00,meteohub,2013-10-25 03:27:00,
2013-10-24 22:32:00,59.9,46.4,30.19,ESE,118,0.0,0.0,61,0.00,,,0.00,meteohub,2013-10-25 03:32:00,
2013-10-24 22:37:00,59.7,46.2,30.19,ESE,118,0.0,0.0,61,0.00,,,0.00,meteohub,2013-10-25 03:37:00,
2013-10-24 22:42:00,59.5,46.0,30.19,ESE,118,0.0,0.0,61,0.00,,,0.00,meteohub,2013-10-25 03:42:00,
2013-10-24 22:47:00,59.4,45.9,30.19,ESE,118,0.0,0.0,61,0.00,,,0.00,meteohub,2013-10-25 03:47:00,
2013-10-24 22:52:00,59.2,46.2,30.19,ESE,118,0.0,0.0,62,0.00,,,0.00,meteohub,2013-10-25 03:52:00,
2013-10-24 22:57:00,59.2,46.2,30.19,ESE,118,0.0,0.0,62,0.00,,,0.00,meteohub,2013-10-25 03:57:00,
2013-10-24 23:01:00,59.0,46.0,30.19,ESE,118,0.0,0.0,62,0.00,,,0.00,meteohub,2013-10-25 04:01:00,
2013-10-24 23:02:00,59.0,46.0,30.19,ESE,118,0.0,0.0,62,0.00,,,0.00,meteohub,2013-10-25 04:02:00,
2013-10-24 23:03:00,58.8,45.9,30.19,ESE,118,0.0,0.0,62,0.00,,,0.00,meteohub,2013-10-25 04:03:00,
2013-10-24 23:08:00,58.8,46.2,30.19,ESE,118,0.0,0.0,63,0.00,,,0.00,meteohub,2013-10-25 04:08:00,
2013-10-24 23:13:00,58.8,46.2,30.19,ESE,118,0.0,0.0,63,0.00,,,0.00,meteohub,2013-10-25 04:13:00,
2013-10-24 23:18:00,58.8,46.6,30.19,ESE,118,0.0,0.0,64,0.00,,,0.00,meteohub,2013-10-25 04:18:00,
2013-10-24 23:23:00,58.8,46.2,30.19,ESE,118,0.0,0.0,63,0.00,,,0.00,meteohub,2013-10-25 04:23:00,
2013-10-24 23:28:00,58.6,46.6,30.19,ESE,118,0.0,0.0,64,0.00,,,0.00,meteohub,2013-10-25 04:28:00,
2013-10-24 23:33:00,58.5,46.4,30.19,ESE,118,0.0,0.0,64,0.00,,,0.00,meteohub,2013-10-25 04:33:00,
2013-10-24 23:38:00,58.3,46.2,30.19,ESE,118,0.0,0.0,64,0.00,,,0.00,meteohub,2013-10-25 04:38:00,
2013-10-24 23:43:00,57.9,46.2,30.19,ESE,118,0.0,0.0,65,0.00,,,0.00,meteohub,2013-10-25 04:43:00,
2013-10-24 23:48:00,57.7,46.0,30.19,ESE,118,0.0,0.0,65,0.00,,,0.00,meteohub,2013-10-25 04:48:00,
2013-10-24 23:53:00,57.6,46.2,30.19,ESE,118,0.0,0.0,66,0.00,,,0.00,meteohub,2013-10-25 04:53:00,
2013-10-24 23:58:00,57.4,46.0,30.19,ESE,118,0.0,0.0,66,0.00,,,0.00,meteohub,2013-10-25 04:58:00,